Hagerstown, MD

9:57 PM EDT on August 23, 2017 (GMT -0400)
Hagerstown Regional-Henson

Weather History for KHGR - January, 2011

Change the Weather History Date:

Tuesday, January 4, 2011

  Actual Average Record
Temperature  
Mean Temperature 33 °F 31 °F  
Max Temperature 45 °F 38 °F 69 °F (1997)
Min Temperature 21 °F 23 °F 5 °F (2014)
Degree Days  
Heating Degree Days 32 34  
Month to date heating degree days 136  
Since 1 July heating degree days 2100  
Cooling Degree Days 0 0  
Month to date cooling degree days 0  
Year to date cooling degree days 0  
Moisture  
Dew Point 15 °F    
Average Humidity 49    
Maximum Humidity 68    
Minimum Humidity 28    
Precipitation  
Precipitation 0.00 in 0.09 in 0.28 in (2004)
Month to date precipitation 0.36  
Year to date precipitation 0.36  
Sea Level Pressure  
Sea Level Pressure 29.99 in    
Wind  
Wind Speed 6 mph (SW)    
Max Wind Speed 17 mph    
Max Gust Speed 32 mph    
Visibility 10 miles    
Events      
T = Trace of Precipitation, MM = Missing Value Source: NWS Daily Summary

Daily Weather History Graph

Daily Weather History Graph

Search for Another Location

Airport or City:

Trip Planner

Search our weather history database for the weather conditions in past years. The results will help you decide how hot, cold, wet, or windy it might be!

Date:

Astronomy

Jan. 04, 2011 Rise Set
Actual Time 7:32 AM EST 4:59 PM EST
Civil Twilight 7:02 AM EST 5:29 PM EST
Nautical Twilight 6:28 AM EST 6:03 PM EST
Astronomical Twilight 5:55 AM EST 6:36 PM EST
Moon 7:39 AM EST (1/4) 5:31 PM EST (1/4)
Length of Visible Light 10h 27m
Length of Day
9h 27m
New Moon, 0% of the Moon is Illuminated
Jan 4
New Moon
Jan 12
First Quarter
Jan 19
Full
Jan 26
Last Quarter
Feb 2
New

Hourly Weather History & Observations

Time (EST) Temp. Windchill Dew Point Humidity Pressure Visibility Wind Dir Wind Speed Gust Speed Precip Events Conditions
12:53 AM 28.0 °F 24.2 °F 10.0 °F 47% 30.17 in 10.0 mi SSE 3.5 mph - N/A   Clear
1:53 AM 28.0 °F 20.8 °F 10.0 °F 47% 30.16 in 10.0 mi SE 6.9 mph - N/A   Clear
2:53 AM 24.1 °F 17.0 °F 12.0 °F 60% 30.15 in 10.0 mi South 5.8 mph - N/A   Clear
3:53 AM 24.1 °F - 12.0 °F 60% 30.13 in 10.0 mi Calm Calm - N/A   Clear
4:53 AM 23.0 °F 17.0 °F 12.0 °F 63% 30.11 in 10.0 mi South 4.6 mph - N/A   Clear
5:53 AM 23.0 °F 17.0 °F 12.0 °F 63% 30.09 in 10.0 mi SSE 4.6 mph - N/A   Clear
6:53 AM 21.9 °F 15.7 °F 12.0 °F 66% 30.09 in 10.0 mi South 4.6 mph - N/A   Clear
7:53 AM 21.0 °F 16.2 °F 12.0 °F 68% 30.07 in 10.0 mi South 3.5 mph - N/A   Mostly Cloudy
8:53 AM 26.1 °F 21.9 °F 14.0 °F 60% 30.04 in 10.0 mi Variable 3.5 mph - N/A   Mostly Cloudy
9:53 AM 27.0 °F - 15.1 °F 61% 30.04 in 10.0 mi Calm Calm - N/A   Mostly Cloudy
10:53 AM 30.9 °F 26.2 °F 15.1 °F 52% 30.01 in 10.0 mi Variable 4.6 mph - N/A   Clear
11:53 AM 36.0 °F 31.1 °F 16.0 °F 44% 29.97 in 10.0 mi South 5.8 mph - N/A   Clear
12:53 PM 39.0 °F 34.0 °F 15.1 °F 38% 29.92 in 10.0 mi South 6.9 mph - N/A   Clear
1:53 PM 42.1 °F 39.2 °F 15.1 °F 34% 29.89 in 10.0 mi Variable 4.6 mph - N/A   Clear
2:53 PM 44.1 °F 40.8 °F 12.9 °F 28% 29.87 in 10.0 mi SSW 5.8 mph - N/A   Partly Cloudy
3:53 PM 45.0 °F 42.6 °F 14.0 °F 29% 29.85 in 10.0 mi West 4.6 mph - N/A   Overcast
4:53 PM 45.0 °F 40.6 °F 16.0 °F 31% 29.85 in 10.0 mi West 8.1 mph - N/A   Overcast
5:53 PM 41.0 °F 33.9 °F 19.0 °F 41% 29.88 in 10.0 mi West 12.7 mph 19.6 mph N/A   Clear
6:53 PM 39.0 °F 31.4 °F 19.0 °F 45% 29.90 in 10.0 mi WNW 12.7 mph - N/A   Partly Cloudy
7:53 PM 35.1 °F 29.3 °F 19.0 °F 52% 29.91 in 10.0 mi WNW 6.9 mph - N/A   Partly Cloudy
8:53 PM 34.0 °F 27.2 °F 19.0 °F 54% 29.91 in 10.0 mi WNW 8.1 mph - N/A   Clear
9:53 PM 36.0 °F 27.1 °F 19.0 °F 50% 29.91 in 10.0 mi WNW 13.8 mph - N/A   Scattered Clouds
10:53 PM 37.0 °F 27.4 °F 17.1 °F 44% 29.91 in 10.0 mi WNW 17.3 mph - N/A   Clear
11:53 PM 36.0 °F 26.0 °F 16.0 °F 44% 29.92 in 10.0 mi West 17.3 mph 32.2 mph N/A   Clear